GFSGL_500_spd_339.txt.gz
Wind_Speed
11 11 10 9 9 10 8 8 7 7 7 9 9 8 10 11 10 10 10 9 8 6 6 5 5 4 3 1 2 4 6 8 10 10 11 15 18 16 17 13 12 13 12
11 11 11 10 11 10 10 10 9 10 12 12 11 9 9 10 11 11 10 8 6 5 6 5 4 4 3 5 6 8 9 10 10 9 9 12 16 16 18 17 14 15 13
11 11 12 12 14 12 11 11 11 11 14 14 12 12 12 12 12 11 12 11 10 9 8 7 5 6 7 8 8 12 14 15 16 14 16 16 17 16 16 17 17 18 18
17 15 14 15 16 18 15 15 15 16 16 17 17 17 16 15 15 14 13 11 10 10 9 9 8 8 11 12 13 13 17 19 21 20 19 20 20 22 20 16 18 18 23
15 18 19 15 21 23 22 19 19 19 20 19 19 19 19 18 17 15 14 14 14 13 13 12 12 13 16 18 19 19 19 23 24 25 24 22 21 24 29 27 22 19 21
21 23 27 26 33 27 21 25 23 23 23 23 24 24 22 20 17 15 15 15 14 13 13 14 14 15 20 23 23 22 23 24 24 28 30 26 25 25 31 33 33 26 24
26 29 29 30 35 21 16 15 28 27 30 30 29 29 28 26 22 18 19 18 18 18 18 19 20 19 22 27 29 26 29 27 31 34 34 32 33 28 30 30 36 30 33
32 34 34 33 32 26 25 25 21 24 30 30 38 43 41 29 23 22 24 27 25 24 24 26 26 26 27 34 37 31 27 29 34 33 36 39 34 32 31 30 31 33 37
38 38 36 34 35 36 33 33 25 26 27 30 32 35 30 13 20 25 30 32 33 26 29 30 33 35 33 35 36 32 31 30 33 34 36 40 39 39 38 38 38 42 45
35 36 43 43 38 39 38 33 32 35 33 31 29 23 25 19 27 32 36 36 34 35 37 38 37 34 34 33 30 27 25 29 32 34 34 35 39 44 46 46 47 48 50
29 30 32 36 40 38 35 37 38 32 32 30 31 30 29 29 32 36 37 40 39 40 39 35 34 27 25 28 31 27 29 29 31 35 35 35 39 44 48 50 49 52 52
36 41 42 36 35 36 34 32 33 36 38 42 40 38 38 39 41 44 45 46 46 40 33 31 25 27 26 30 31 32 31 27 29 31 31 29 32 38 44 48 50 51 44
52 58 59 37 35 37 41 38 39 39 38 39 39 38 38 39 40 40 42 40 39 35 32 29 27 28 30 32 30 26 29 29 30 30 34 38 39 40 44 44 45 44 36
56 52 50 57 60 49 49 51 44 42 42 39 40 39 41 39 38 40 39 38 35 35 33 32 31 31 31 31 30 30 32 31 33 34 37 38 42 42 46 47 42 44 37
61 57 57 55 55 54 53 51 48 48 48 46 44 43 42 43 43 39 39 40 39 37 37 37 36 35 35 35 35 35 36 36 36 38 41 41 44 41 44 47 43 39 37
64 63 60 57 55 56 56 53 50 50 50 50 48 48 46 44 44 43 41 40 41 42 41 40 42 40 40 40 40 40 41 41 41 41 41 42 42 41 40 43 37 33 33
70 69 66 61 59 58 58 58 59 58 55 52 51 51 49 48 47 46 45 43 42 43 43 42 42 42 42 42 44 44 44 46 46 44 43 42 40 38 37 35 33 32 26
68 69 66 65 62 60 60 60 57 55 56 53 52 51 51 49 47 44 45 47 47 47 45 45 45 46 45 45 45 46 47 48 47 45 44 42 41 38 33 31 26 27 26
60 48 63 68 72 64 61 59 58 54 50 49 47 50 52 50 48 46 45 47 47 46 46 46 44 44 44 44 45 44 45 46 46 46 46 44 42 40 35 32 28 21 17
52 43 58 45 63 65 63 60 57 55 51 47 48 49 49 50 49 46 43 45 47 44 44 44 44 42 44 44 46 45 43 44 45 45 47 47 44 42 39 38 35 33 34
31 41 70 35 40 48 49 57 57 55 52 47 45 49 49 48 47 46 45 43 45 46 45 45 45 44 43 43 43 44 46 46 48 48 49 49 49 45 42 40 41 36 34
5 20 25 39 46 43 42 48 53 56 53 50 45 46 50 51 50 48 46 44 44 48 46 44 44 45 45 45 46 46 46 46 47 48 50 51 50 47 44 41 38 40 34
17 22 25 28 32 40 45 48 51 55 54 50 49 46 51 50 51 51 51 46 46 47 48 43 44 47 48 47 47 46 45 46 49 50 49 48 48 45 42 40 38 41 40
26 26 25 25 23 28 36 42 47 48 49 49 46 43 44 48 51 51 50 50 46 47 48 47 45 46 46 45 44 45 46 47 46 44 45 45 44 43 40 39 39 40 36
26 24 22 21 24 25 22 26 32 39 46 46 44 39 39 40 42 41 43 46 46 46 48 49 47 46 46 44 43 46 46 44 43 42 42 40 39 37 36 38 38 40 41
18 17 17 14 16 20 25 29 31 30 29 32 36 35 35 37 38 35 33 36 36 41 42 44 46 45 42 42 43 43 42 41 41 40 40 38 38 37 40 41 40 39 45

GFSGL_500_spd_342.txt.gz
Wind_Speed
11 12 13 15 16 16 16 13 10 10 10 11 14 16 18 19 20 19 16 13 13 12 13 13 12 9 8 8 9 7 6 6 5 4 6 4 4 4 6 6 10 9 8
18 18 16 16 15 13 14 14 14 13 14 12 14 16 18 20 22 22 20 19 18 17 15 15 14 12 11 11 11 8 6 3 3 2 4 7 8 9 11 10 9 10 10
21 23 20 17 16 15 14 14 14 15 16 17 16 16 16 17 19 19 19 20 19 18 17 15 13 14 14 13 13 12 10 10 8 7 7 8 10 8 8 11 10 13 13
26 24 24 21 18 15 12 14 15 16 17 18 21 22 22 22 21 21 22 22 23 22 19 18 18 18 19 19 18 16 16 15 14 13 13 12 12 15 15 9 11 13 15
27 29 29 28 25 21 20 21 22 21 22 22 23 25 26 27 27 27 28 28 27 25 24 23 23 23 24 23 21 20 21 20 17 16 16 15 16 16 21 23 20 18 20
22 28 32 33 32 26 27 32 23 28 26 25 26 29 31 32 33 32 32 30 29 28 27 26 25 25 24 23 23 24 23 22 22 21 21 23 25 25 24 22 29 31 23
28 32 36 35 37 35 33 19 16 29 32 34 36 35 36 35 36 37 36 36 34 31 30 28 26 23 22 22 25 26 27 24 23 26 28 29 26 29 26 31 29 22 30
32 39 47 41 39 42 28 16 15 23 21 29 36 38 36 38 38 40 41 42 39 38 38 33 27 24 23 26 29 31 34 29 28 31 31 33 30 31 32 33 35 35 33
35 40 24 37 35 26 15 18 25 25 25 29 34 38 31 28 37 46 55 57 52 49 48 37 27 24 26 31 32 37 39 36 35 35 36 33 31 32 35 36 34 37 37
39 41 40 40 41 37 29 23 31 30 31 28 31 35 33 33 32 40 42 43 35 38 23 16 23 25 31 37 37 39 40 41 41 36 35 30 31 30 33 31 31 34 37
34 40 44 42 47 50 45 37 34 35 33 32 33 33 34 34 32 31 32 36 38 37 30 30 23 30 34 37 38 36 40 45 39 34 29 30 24 30 31 29 28 31 34
38 41 41 42 37 47 44 40 40 38 39 36 36 38 38 36 37 36 38 39 39 40 41 40 38 38 37 36 33 34 36 38 30 28 28 27 31 33 34 33 34 37 38
42 39 42 38 40 42 42 47 51 59 52 41 38 38 39 41 39 41 42 44 44 45 46 45 40 39 40 37 33 32 34 33 31 30 31 30 32 35 35 36 37 41 42
45 47 45 45 45 44 46 45 49 35 43 44 42 40 41 44 45 42 42 42 44 44 43 40 37 37 39 40 36 34 35 35 35 34 33 34 35 37 38 40 41 44 45
54 53 55 57 50 47 46 46 53 54 53 49 48 42 44 45 48 49 46 43 43 42 43 43 41 39 39 40 41 39 38 38 37 37 38 39 40 39 40 41 41 44 44
59 59 62 57 62 60 56 52 51 51 49 49 45 48 50 51 51 51 52 50 48 45 43 44 44 44 44 43 43 45 44 42 43 44 44 44 44 44 42 41 40 41 41
61 64 69 69 71 59 61 56 55 54 53 51 49 52 52 54 54 51 52 52 52 50 48 46 46 47 47 48 47 47 48 49 49 50 50 49 48 47 45 43 41 40 39
65 74 73 60 62 64 61 59 58 59 59 55 54 54 56 53 54 55 53 50 51 52 51 52 49 49 49 47 48 49 50 52 53 54 54 52 50 49 48 47 45 43 37
52 59 52 47 53 57 54 58 66 59 60 58 53 54 54 51 48 50 53 52 51 50 51 52 52 52 54 53 52 52 52 53 55 56 57 56 51 49 47 46 47 45 42
37 37 34 28 37 40 47 55 55 54 58 58 56 55 54 52 47 47 49 49 51 51 49 50 51 52 55 57 56 56 55 54 55 55 56 56 52 48 47 47 48 48 44
27 28 26 27 25 33 18 51 37 37 42 48 49 49 52 49 48 47 49 50 50 52 50 51 51 50 52 54 56 55 54 54 54 53 51 53 53 49 47 49 50 49 45
23 25 20 15 14 19 32 29 42 40 41 46 50 55 53 51 50 51 47 49 50 49 50 50 50 50 51 50 51 52 53 53 52 51 51 51 51 53 53 51 50 49 43
31 22 19 14 17 18 20 27 34 34 43 48 48 50 50 51 53 51 51 47 49 50 50 50 50 49 48 49 49 49 49 50 50 52 53 52 54 54 53 50 50 48 42
36 32 26 20 15 15 17 17 19 27 34 40 46 47 45 48 52 51 48 46 45 48 49 51 52 51 51 50 49 48 48 50 51 52 53 54 53 52 51 48 46 43 40
30 30 27 27 22 15 15 17 18 19 18 21 25 31 36 42 43 42 42 39 39 35 45 50 51 52 52 51 50 51 54 55 53 50 51 50 50 50 48 44 42 37 36
28 26 25 22 20 18 16 16 19 23 25 26 26 28 30 29 29 33 36 37 39 38 38 42 45 49 49 47 47 47 48 51 52 50 48 47 45 43 43 40 38 36 35

GFSGL_500_spd_345.txt.gz
Wind_Speed
14 15 16 18 17 14 15 15 14 13 12 13 14 12 10 25 29 31 30 28 25 23 22 23 22 21 21 20 18 16 17 16 12 9 7 6 7 6 5 6 7 8 11
22 22 22 23 22 19 17 15 14 15 15 14 16 16 14 18 26 29 31 29 28 27 27 26 25 23 22 20 18 17 19 17 14 12 9 8 7 5 5 6 6 7 10
27 25 26 26 25 23 21 18 16 16 18 18 18 19 21 24 26 29 31 30 29 29 28 28 29 26 25 24 22 20 20 19 18 16 15 14 13 10 10 7 9 9 8
35 29 31 32 31 28 27 24 22 21 21 21 23 25 24 23 25 26 28 29 29 30 30 29 28 26 27 27 27 25 23 21 19 18 17 17 17 17 15 15 15 14 14
38 21 37 38 36 29 28 27 27 25 25 27 27 27 27 26 25 26 27 28 29 31 32 33 32 32 32 31 30 28 24 21 19 19 20 19 17 19 20 20 19 21 21
33 30 25 54 49 42 37 39 37 37 35 32 29 28 30 31 31 32 31 30 33 33 34 35 35 37 36 34 33 29 26 26 25 22 22 20 22 26 25 26 26 23 25
30 33 35 43 49 50 46 51 47 44 50 41 38 37 35 37 36 36 37 38 38 38 37 37 37 37 37 35 33 31 30 29 28 26 22 24 26 30 30 28 25 28 28
30 37 37 46 53 55 58 40 39 54 56 37 45 41 41 42 41 40 42 42 40 40 40 41 42 40 39 38 38 35 33 32 32 31 28 31 32 33 34 34 31 33 32
29 25 25 29 49 54 49 60 48 37 28 25 28 33 29 32 38 41 54 51 46 45 45 46 50 48 44 45 43 40 37 36 38 37 36 36 38 36 36 39 34 33 28
31 35 33 28 35 37 41 36 20 19 17 18 27 28 33 33 35 29 28 40 41 38 48 53 58 61 57 54 50 44 43 42 43 44 46 45 41 42 40 41 37 33 28
35 30 31 37 40 41 38 42 38 26 22 26 29 34 35 33 32 33 34 37 38 40 39 44 61 47 47 58 49 43 43 42 39 42 41 45 44 40 36 30 30 25 28
40 38 34 33 37 40 40 37 35 29 24 30 29 33 35 38 39 38 41 43 46 41 41 42 42 35 35 38 53 41 41 37 39 42 45 36 36 32 30 30 29 28 30
33 37 39 41 41 40 37 37 36 33 33 37 39 43 44 50 46 46 44 43 43 42 44 41 41 41 37 39 39 38 40 39 40 42 38 31 26 31 34 32 32 31 31
36 38 42 43 44 43 44 43 43 40 41 46 47 48 52 52 51 50 49 49 45 46 45 43 41 39 38 38 39 39 41 41 41 42 40 35 33 34 35 34 34 35 34
43 43 46 51 52 49 50 50 52 53 52 53 55 57 57 56 51 52 52 53 50 49 49 45 43 41 41 40 40 39 40 44 42 41 41 40 38 37 38 40 40 39 38
50 51 50 51 49 52 55 58 59 57 55 58 56 59 57 53 54 57 60 63 55 53 52 49 47 47 46 45 43 41 41 43 44 45 43 43 42 42 43 44 43 42 42
57 53 49 48 47 49 55 58 60 62 60 62 62 64 63 68 66 59 53 64 56 54 52 53 53 52 52 48 48 46 43 43 47 46 47 46 46 46 47 48 48 46 46
50 48 46 45 47 49 56 62 67 57 63 59 64 65 72 68 64 60 61 57 58 58 54 55 56 57 56 52 51 51 48 47 46 49 49 48 47 48 49 49 49 49 49
42 42 43 42 42 46 53 59 55 50 59 66 60 66 76 68 61 62 63 59 56 54 54 57 59 57 55 54 54 54 52 51 50 50 50 51 51 51 50 50 50 50 50
45 45 44 43 38 41 45 48 42 44 56 63 47 53 52 61 65 63 63 60 59 56 55 53 56 61 59 57 55 55 56 55 55 55 54 53 53 53 54 54 53 53 52
44 44 44 39 35 35 38 35 31 32 45 58 59 53 55 63 58 59 64 59 57 56 55 53 53 55 58 61 60 57 56 56 56 57 57 57 56 56 56 56 55 54 53
44 43 43 41 37 32 29 27 14 21 27 33 41 34 40 53 60 57 56 58 58 57 56 54 53 53 57 57 60 58 55 55 54 55 56 57 57 57 57 55 55 54 52
43 42 39 36 32 29 21 19 19 18 25 38 38 43 43 40 44 47 50 52 55 56 55 54 55 49 51 56 57 59 57 54 55 54 54 54 56 54 54 55 55 55 53
37 36 34 32 26 22 19 13 14 19 16 18 26 33 34 36 40 44 47 51 53 51 50 52 51 52 49 50 55 54 53 53 54 52 52 53 53 53 54 54 53 51 52
32 30 29 28 29 28 24 18 14 14 17 20 21 22 26 30 37 41 44 45 46 45 46 48 48 48 46 49 52 57 55 53 55 50 50 51 53 53 53 52 51 51 49
32 32 31 29 24 22 19 17 14 15 16 16 20 25 28 30 31 32 35 36 37 37 38 38 40 42 44 44 49 54 55 53 54 56 54 52 55 55 54 51 50 50 48

GFSGL_500_spd_348.txt.gz
Wind_Speed
25 25 23 21 20 19 18 17 16 15 15 15 16 16 18 17 21 32 32 32 30 29 28 27 26 24 24 23 22 23 24 21 19 18 16 16 15 13 12 13 13 13 13
31 31 30 27 24 22 21 20 19 18 18 18 17 19 21 21 22 33 36 35 33 31 31 29 28 27 27 26 26 25 25 22 19 19 18 16 14 13 13 11 10 12 14
32 31 31 28 25 25 25 27 25 24 23 22 20 21 23 23 20 33 36 33 35 35 32 31 32 30 29 29 29 25 24 25 23 21 20 18 17 15 14 14 13 13 12
26 30 30 32 30 30 31 32 29 29 28 27 24 24 25 26 24 27 30 35 38 37 36 34 35 33 34 33 31 27 25 27 26 23 22 21 20 19 19 18 18 18 15
10 23 23 25 34 34 33 37 36 36 36 34 31 28 28 30 30 31 34 36 37 37 37 36 36 36 36 37 34 32 29 31 28 27 26 24 24 24 24 21 20 20 22
20 29 22 27 27 27 27 38 41 45 48 46 38 35 33 34 34 34 35 36 38 39 40 39 36 35 34 35 34 35 33 34 33 31 29 26 27 26 26 27 25 27 27
27 15 24 25 29 32 34 36 43 49 56 43 54 41 40 40 39 38 37 37 37 37 39 38 37 37 37 37 39 39 39 38 35 35 32 31 33 33 34 30 29 29 29
23 19 23 27 27 33 36 39 44 46 42 41 40 53 60 53 47 44 42 40 40 39 39 40 40 38 39 40 41 42 42 41 39 38 38 37 35 36 36 35 36 34 33
32 30 31 32 32 33 35 40 35 35 36 29 37 40 47 64 57 51 43 41 42 42 42 41 43 40 40 41 42 43 46 44 47 47 46 45 43 43 42 40 38 42 38
27 31 34 35 36 39 39 41 39 35 33 33 36 28 25 44 51 53 46 43 41 38 43 46 48 45 43 45 48 50 54 52 52 52 53 50 44 50 44 46 48 44 44
31 31 32 34 34 35 35 35 32 32 30 30 30 26 22 29 26 28 33 34 36 38 41 46 49 51 48 49 53 56 57 62 64 64 59 60 48 46 39 44 41 47 36
28 26 29 30 30 29 30 32 34 32 31 28 28 29 32 31 30 32 35 38 40 40 34 31 36 44 49 47 49 46 49 56 66 66 61 58 58 51 35 32 34 34 32
32 31 29 32 31 32 34 35 34 35 35 34 32 30 36 36 35 38 39 42 39 41 43 43 43 46 49 52 54 51 38 42 34 45 48 52 48 44 37 29 28 31 32
35 34 33 35 37 38 40 41 41 42 40 38 37 36 36 43 45 48 50 47 46 44 42 47 52 52 51 50 45 41 38 37 37 36 43 53 49 44 39 33 32 32 29
36 38 41 42 44 45 42 42 42 37 38 41 42 44 47 48 53 55 55 54 52 52 56 52 53 53 52 48 46 45 42 42 43 44 43 42 43 43 39 35 33 33 32
34 37 41 46 47 42 38 36 39 37 42 42 45 48 51 53 56 58 60 60 61 62 64 57 57 57 55 52 49 46 46 45 45 47 45 43 41 41 41 39 38 35 35
39 39 36 35 34 36 38 39 40 42 43 45 46 51 52 53 57 60 65 64 65 63 63 66 61 57 55 56 53 51 51 50 48 47 46 46 43 43 42 44 43 40 38
36 34 34 35 36 36 36 41 44 44 45 47 51 53 56 58 60 66 67 71 70 70 71 66 63 61 63 62 59 55 53 53 51 50 49 48 46 44 46 45 45 46 45
35 37 39 40 39 38 37 38 40 43 47 51 55 56 61 58 59 72 73 74 72 78 60 66 70 66 61 65 62 59 57 55 53 51 50 51 50 48 47 47 46 46 47
39 41 43 43 44 43 42 40 43 42 43 48 52 50 54 62 64 75 70 73 72 74 60 69 67 66 63 57 55 56 58 59 57 54 54 53 53 53 51 51 49 49 48
40 39 40 41 41 41 40 42 39 39 41 40 31 32 34 43 56 71 44 67 76 70 65 63 64 65 59 58 56 58 58 55 55 58 58 57 56 55 56 54 54 53 51
35 36 36 37 38 39 37 34 31 33 35 28 26 23 24 25 34 40 52 38 45 48 47 54 59 58 59 58 59 60 60 56 54 55 57 60 59 58 56 56 54 54 54
31 32 33 34 34 34 31 30 32 32 30 28 26 23 23 24 29 24 46 49 44 52 57 57 58 57 55 56 59 59 59 56 53 54 55 56 58 56 56 55 54 54 54
32 32 32 34 35 34 30 27 25 23 24 26 25 24 21 20 24 34 41 38 36 41 43 45 48 50 51 56 58 57 57 55 53 49 51 53 53 54 54 52 51 52 52
29 30 33 35 35 33 31 29 27 25 19 20 22 22 24 25 26 32 39 41 43 45 48 49 49 50 50 50 51 50 54 53 52 50 46 49 52 51 56 51 45 48 49
30 31 32 32 32 31 29 26 26 24 23 24 25 23 22 25 29 30 32 33 32 33 36 42 48 51 52 52 50 53 52 51 51 48 51 51 49 51 55 54 51 48 48